Regional Weather Roundup
Issued by NWS Nashville, TN

Home | Current Version | Previous Version | Text Only | Print | Product List | Glossary On
Versions: 1 2 3 4 5 6 7 8 9 10 11 12 13 14 15 16 17 18 19 20 21 22 23 24 25 26 27 28 29 30 31 32 33 34 35 36 37 38 39 40 41 42 43 44 45 46 47 48 49 50
000
ASUS44 KOHX 200710
RWROHX
MIDDLE TENNESSEE HOURLY WEATHER ROUNDUP
NATIONAL WEATHER SERVICE NASHVILLE TN
200 AM CDT WED AUG 20 2014

NOTE: "FAIR" INDICATES FEW OR NO CLOUDS BELOW 12,000 FEET WITH
NO SIGNIFICANT WEATHER AND/OR OBSTRUCTIONS TO VISIBILITY.

* THESE REPORTS ARE NOT UNDER NWS QUALITY CONTROL AND MAY NOT
  REPORT WEATHER SUCH AS PRECIPITATION AND FOG.


TNZ005>011-023>034-057-059-062>066-078-080-200800
...NORTHERN MIDDLE TENNESSEE...

CITY           SKY/WX    TMP DP  RH WIND       PRES   REMARKS
CLARKSVILLE    CLEAR     76  72  87 SW5       29.88F
CROSSVILLE     PTCLDY    71  67  87 SW3       30.00F FOG
GALLATIN         N/A     73  73 100 CALM      29.91F
NASHVILLE      CLEAR     77  72  84 S6        29.91F
PORTLAND       CLEAR     75  72  88 S6        29.90F
SMYRNA         CLEAR     76  73  90 CALM      29.91F
SPARTA         CLEAR     70  70 100 CALM      29.94F
$$
TNZ056-058-060-061-075>077-079-093>097-200800
...SOUTHERN MIDDLE TENNESSEE...

CITY           SKY/WX    TMP DP  RH WIND       PRES   REMARKS
COLUMBIA       CLEAR     75  75 100 SW3       29.91F
FAYETTEVILLE   CLEAR     72  70  94 S3        29.96S
LEWISBURG      CLEAR     77  70  79 CALM      29.92F
MCMINNVILLE    CLEAR     72  72 100 CALM      29.95F
MURFREESBORO   CLEAR     77  72  84 SW5       29.91F
SHELBYVILLE    PTCLDY    75  73  94 S3        29.94F
TULLAHOMA      MOCLDY    72  72 100 CALM      29.96F
WINCHESTER     PTCLDY    72  72 100 CALM      29.96F
$$


...KEY TO REMARKS...
VSB - VISIBILITY IN MILES
WCI - WIND CHILL INDEX
HX  - HEAT INDEX



USA.gov is the U.S. government's official web portal to all federal, state and local government web resources and services.